Year,Month,Day,Hour,Minute,Value (Times are PST for temperature in C)
2015,06,21,00,00,10.40
2015,06,21,00,01,10.40
2015,06,21,00,02,10.40
2015,06,21,00,03,10.40
2015,06,21,00,04,10.40
2015,06,21,00,05,10.40
2015,06,21,00,06,10.40
2015,06,21,00,07,10.30
2015,06,21,00,08,10.30
2015,06,21,00,09,10.30
2015,06,21,00,10,10.30
2015,06,21,00,11,10.30
2015,06,21,00,12,10.30
2015,06,21,00,13,10.30
2015,06,21,00,14,10.30
2015,06,21,00,15,10.30
2015,06,21,00,16,10.30
2015,06,21,00,17,10.30
2015,06,21,00,18,10.30
2015,06,21,00,19,10.20
2015,06,21,00,20,10.20
2015,06,21,00,21,10.20
2015,06,21,00,22,10.20
2015,06,21,00,23,10.20
2015,06,21,00,24,10.20
2015,06,21,00,25,10.10
2015,06,21,00,26,10.10
2015,06,21,00,27,10.10
2015,06,21,00,28,10.10
2015,06,21,00,29,10.10
2015,06,21,00,30,10.00
2015,06,21,00,31,10.00
2015,06,21,00,32,10.00
2015,06,21,00,33,10.00
2015,06,21,00,34,10.00
2015,06,21,00,35,9.90
2015,06,21,00,36,9.90
2015,06,21,00,37,9.90
2015,06,21,00,38,9.90
2015,06,21,00,39,9.90
2015,06,21,00,40,9.90
2015,06,21,00,41,9.90
2015,06,21,00,42,9.90
2015,06,21,00,43,9.90
2015,06,21,00,44,9.80
2015,06,21,00,45,9.80
2015,06,21,00,46,9.80
2015,06,21,00,47,9.80
2015,06,21,00,48,9.80
2015,06,21,00,49,9.80
2015,06,21,00,50,9.80
2015,06,21,00,51,9.80
2015,06,21,00,52,9.80
2015,06,21,00,53,9.80
2015,06,21,00,54,9.80
2015,06,21,00,55,9.80
2015,06,21,00,56,9.80
2015,06,21,00,57,9.80
2015,06,21,00,58,9.80
2015,06,21,00,59,9.80
2015,06,21,01,00,9.80
2015,06,21,01,01,9.80
2015,06,21,01,02,9.70
2015,06,21,01,03,9.70
2015,06,21,01,04,9.70
2015,06,21,01,05,9.70
2015,06,21,01,06,9.70
2015,06,21,01,07,9.70
2015,06,21,01,08,9.70
2015,06,21,01,09,9.70
2015,06,21,01,10,9.70
2015,06,21,01,11,9.70
2015,06,21,01,12,9.70
2015,06,21,01,13,9.70
2015,06,21,01,14,9.70
2015,06,21,01,15,9.70
2015,06,21,01,16,9.70
2015,06,21,01,17,9.70
2015,06,21,01,18,9.70
2015,06,21,01,19,9.70
2015,06,21,01,20,9.70
2015,06,21,01,21,9.70
2015,06,21,01,22,9.70
2015,06,21,01,23,9.60
2015,06,21,01,24,9.60
2015,06,21,01,25,9.60
2015,06,21,01,26,9.60
2015,06,21,01,27,9.50
2015,06,21,01,28,9.50
2015,06,21,01,29,9.50
2015,06,21,01,30,9.50
2015,06,21,01,31,9.50
2015,06,21,01,32,9.50
2015,06,21,01,33,9.50
2015,06,21,01,34,9.50
2015,06,21,01,35,9.50
2015,06,21,01,36,9.40
2015,06,21,01,37,9.40
2015,06,21,01,38,9.40
2015,06,21,01,39,9.40
2015,06,21,01,40,9.40
2015,06,21,01,41,9.30
2015,06,21,01,42,9.40
2015,06,21,01,43,9.40
2015,06,21,01,44,9.40
2015,06,21,01,45,9.40
2015,06,21,01,46,9.30
2015,06,21,01,47,9.30
2015,06,21,01,48,9.30
2015,06,21,01,49,9.30
2015,06,21,01,50,9.40
2015,06,21,01,51,9.40
2015,06,21,01,52,9.40
2015,06,21,01,53,9.40
2015,06,21,01,54,9.40
2015,06,21,01,55,9.40
2015,06,21,01,56,9.40
2015,06,21,01,57,9.40
2015,06,21,01,58,9.40
2015,06,21,01,59,9.40
2015,06,21,02,00,9.40
2015,06,21,02,01,9.40
2015,06,21,02,02,9.40
2015,06,21,02,03,9.40
2015,06,21,02,04,9.40
2015,06,21,02,05,9.40
2015,06,21,02,06,9.40
2015,06,21,02,07,9.40
2015,06,21,02,08,9.40
2015,06,21,02,09,9.40
2015,06,21,02,10,9.40
2015,06,21,02,11,9.40
2015,06,21,02,12,9.40
2015,06,21,02,13,9.40
2015,06,21,02,14,9.40
2015,06,21,02,15,9.40
2015,06,21,02,16,9.40
2015,06,21,02,17,9.30
2015,06,21,02,18,9.30
2015,06,21,02,19,9.30
2015,06,21,02,20,9.30
2015,06,21,02,21,9.30
2015,06,21,02,22,9.30
2015,06,21,02,23,9.30
2015,06,21,02,24,9.30
2015,06,21,02,25,9.30
2015,06,21,02,26,9.30
2015,06,21,02,27,9.30
2015,06,21,02,28,9.30
2015,06,21,02,29,9.20
2015,06,21,02,30,9.20
2015,06,21,02,31,9.20
2015,06,21,02,32,9.20
2015,06,21,02,33,9.20
2015,06,21,02,34,9.20
2015,06,21,02,35,9.20
2015,06,21,02,36,9.20
2015,06,21,02,37,9.20
2015,06,21,02,38,9.20
2015,06,21,02,39,9.10
2015,06,21,02,40,9.10
2015,06,21,02,41,9.10
2015,06,21,02,42,9.10
2015,06,21,02,43,9.10
2015,06,21,02,44,9.10
2015,06,21,02,45,9.10
2015,06,21,02,46,9.10
2015,06,21,02,47,9.10
2015,06,21,02,48,9.10
2015,06,21,02,49,9.10
2015,06,21,02,50,9.10
2015,06,21,02,51,9.10
2015,06,21,02,52,9.00
2015,06,21,02,53,9.00
2015,06,21,02,54,9.00
2015,06,21,02,55,9.10
2015,06,21,02,56,9.10
2015,06,21,02,57,9.10
2015,06,21,02,58,9.10
2015,06,21,02,59,9.10
2015,06,21,03,00,9.10
2015,06,21,03,01,9.10
2015,06,21,03,02,9.10
2015,06,21,03,03,9.10
2015,06,21,03,04,9.10
2015,06,21,03,05,9.10
2015,06,21,03,06,9.10
2015,06,21,03,07,9.10
2015,06,21,03,08,9.10
2015,06,21,03,09,9.00
2015,06,21,03,10,9.00
2015,06,21,03,11,9.00
2015,06,21,03,12,9.00
2015,06,21,03,13,8.90
2015,06,21,03,14,8.90
2015,06,21,03,15,8.90
2015,06,21,03,16,8.90
2015,06,21,03,17,8.90
2015,06,21,03,18,8.90
2015,06,21,03,19,8.80
2015,06,21,03,20,8.80
2015,06,21,03,21,8.80
2015,06,21,03,22,8.80
2015,06,21,03,23,8.80
2015,06,21,03,24,8.80
2015,06,21,03,25,8.70
2015,06,21,03,26,8.70
2015,06,21,03,27,8.70
2015,06,21,03,28,8.70
2015,06,21,03,29,8.70
2015,06,21,03,30,8.70
2015,06,21,03,31,8.70
2015,06,21,03,32,8.70
2015,06,21,03,33,8.70
2015,06,21,03,34,8.70
2015,06,21,03,35,8.60
2015,06,21,03,36,8.60
2015,06,21,03,37,8.60
2015,06,21,03,38,8.60
2015,06,21,03,39,8.60
2015,06,21,03,40,8.60
2015,06,21,03,41,8.60
2015,06,21,03,42,8.50
2015,06,21,03,43,8.50
2015,06,21,03,44,8.50
2015,06,21,03,45,8.50
2015,06,21,03,46,8.40
2015,06,21,03,47,8.40
2015,06,21,03,48,8.40
2015,06,21,03,49,8.50
2015,06,21,03,50,8.50
2015,06,21,03,51,8.50
2015,06,21,03,52,8.50
2015,06,21,03,53,8.50
2015,06,21,03,54,8.50
2015,06,21,03,55,8.50
2015,06,21,03,56,8.50
2015,06,21,03,57,8.50
2015,06,21,03,58,8.50
2015,06,21,03,59,8.50
2015,06,21,04,00,8.50
2015,06,21,04,01,8.40
2015,06,21,04,02,8.40
2015,06,21,04,03,8.40
2015,06,21,04,04,8.40
2015,06,21,04,05,8.40
2015,06,21,04,06,8.40
2015,06,21,04,07,8.40
2015,06,21,05,02,8.50
2015,06,21,05,03,8.50
2015,06,21,05,04,8.50
2015,06,21,05,05,8.40
2015,06,21,05,06,8.40
2015,06,21,05,07,8.40
2015,06,21,05,08,8.40
2015,06,21,05,09,8.40
2015,06,21,05,10,8.40
2015,06,21,05,11,8.40
2015,06,21,05,12,8.30
2015,06,21,05,13,8.30
2015,06,21,05,14,8.30
2015,06,21,05,15,8.30
2015,06,21,05,16,8.30
2015,06,21,05,17,8.30
2015,06,21,05,18,8.20
2015,06,21,05,19,8.20
2015,06,21,05,20,8.20
2015,06,21,05,21,8.20
2015,06,21,05,22,8.20
2015,06,21,05,23,8.20
2015,06,21,05,24,8.20
2015,06,21,05,25,8.20
2015,06,21,05,26,8.20
2015,06,21,05,27,8.20
2015,06,21,05,28,8.20
2015,06,21,05,29,8.20
2015,06,21,05,30,8.20
2015,06,21,05,31,8.20
2015,06,21,05,32,8.30
2015,06,21,05,33,8.30
2015,06,21,05,34,8.30
2015,06,21,05,35,8.30
2015,06,21,05,36,8.30
2015,06,21,05,37,8.30
2015,06,21,05,38,8.30
2015,06,21,05,39,8.30
2015,06,21,05,40,8.40
2015,06,21,05,41,8.40
2015,06,21,05,42,8.40
2015,06,21,05,43,8.40
2015,06,21,05,44,8.40
2015,06,21,05,45,8.40
2015,06,21,05,46,8.40
2015,06,21,05,47,8.40
2015,06,21,05,48,8.50
2015,06,21,05,49,8.50
2015,06,21,05,50,8.50
2015,06,21,05,51,8.50
2015,06,21,05,52,8.50
2015,06,21,05,53,8.50
2015,06,21,05,54,8.50
2015,06,21,05,55,8.50
2015,06,21,05,56,8.60
2015,06,21,05,57,8.60
2015,06,21,05,58,8.60
2015,06,21,05,59,8.60
2015,06,21,06,00,8.60
2015,06,21,06,01,8.60
2015,06,21,06,02,8.60
2015,06,21,06,03,8.60
2015,06,21,06,04,8.60
2015,06,21,06,05,8.70
2015,06,21,06,06,8.70
2015,06,21,06,07,8.70
2015,06,21,06,08,8.70
2015,06,21,06,09,8.70
2015,06,21,06,10,8.80
2015,06,21,06,11,8.80
2015,06,21,06,12,8.90
2015,06,21,06,13,8.90
2015,06,21,06,14,8.90
2015,06,21,06,15,8.90
2015,06,21,06,16,9.00
2015,06,21,06,17,9.00
2015,06,21,06,18,9.00
2015,06,21,06,19,9.10
2015,06,21,06,20,9.10
2015,06,21,06,21,9.10
2015,06,21,06,22,9.10
2015,06,21,06,23,9.20
2015,06,21,06,24,9.10
2015,06,21,06,25,9.10
2015,06,21,06,26,9.10
2015,06,21,06,27,9.10
2015,06,21,06,28,9.20
2015,06,21,06,29,9.20
2015,06,21,06,30,9.20
2015,06,21,06,31,9.20
2015,06,21,06,32,9.20
2015,06,21,06,33,9.20
2015,06,21,06,34,9.30
2015,06,21,06,35,9.30
2015,06,21,06,36,9.30
2015,06,21,06,37,9.30
2015,06,21,06,38,9.30
2015,06,21,06,39,9.40
2015,06,21,06,40,9.40
2015,06,21,06,41,9.40
2015,06,21,06,42,9.40
2015,06,21,06,43,9.50
2015,06,21,06,44,9.50
2015,06,21,06,45,9.60
2015,06,21,06,46,9.60
2015,06,21,06,47,9.60
2015,06,21,06,48,9.60
2015,06,21,06,49,9.70
2015,06,21,06,50,9.70
2015,06,21,06,51,9.70
2015,06,21,06,52,9.70
2015,06,21,06,53,9.70
2015,06,21,06,54,9.80
2015,06,21,06,55,9.80
2015,06,21,06,56,9.80
2015,06,21,06,57,9.80
2015,06,21,06,58,9.80
2015,06,21,06,59,9.80
2015,06,21,07,00,9.80
2015,06,21,07,01,9.90
2015,06,21,07,02,9.90
2015,06,21,07,03,9.90
2015,06,21,07,04,9.90
2015,06,21,07,05,9.90
2015,06,21,07,06,9.90
2015,06,21,07,07,9.90
2015,06,21,07,08,10.00
2015,06,21,07,09,10.00
2015,06,21,07,10,10.00
2015,06,21,07,11,10.10
2015,06,21,07,12,10.10
2015,06,21,07,13,10.10
2015,06,21,07,14,10.10
2015,06,21,07,15,10.10
2015,06,21,07,16,10.20
2015,06,21,07,17,10.20
2015,06,21,07,18,10.20
2015,06,21,07,19,10.20
2015,06,21,07,20,10.30
2015,06,21,07,21,10.30
2015,06,21,07,22,10.30
2015,06,21,07,23,10.40
2015,06,21,07,24,10.40
2015,06,21,07,25,10.40
2015,06,21,07,26,10.50
2015,06,21,07,27,10.50
2015,06,21,07,28,10.50
2015,06,21,07,29,10.60
2015,06,21,07,30,10.60
2015,06,21,07,31,10.70
2015,06,21,07,32,10.70
2015,06,21,07,33,10.80
2015,06,21,07,34,10.80
2015,06,21,07,35,10.80
2015,06,21,07,36,10.80
2015,06,21,07,37,10.90
2015,06,21,07,38,10.90
2015,06,21,07,39,10.90
2015,06,21,07,40,11.00
2015,06,21,07,41,11.00
2015,06,21,07,42,11.10
2015,06,21,07,43,11.20
2015,06,21,07,44,11.30
2015,06,21,07,45,11.40
2015,06,21,07,46,11.50
2015,06,21,07,47,11.60
2015,06,21,07,48,11.70
2015,06,21,07,49,11.80
2015,06,21,07,50,11.80
2015,06,21,07,51,11.80
2015,06,21,07,52,11.90
2015,06,21,07,53,11.90
2015,06,21,07,54,11.90
2015,06,21,07,55,11.90
2015,06,21,07,56,12.00
2015,06,21,07,57,12.00
2015,06,21,07,58,12.10
2015,06,21,07,59,12.10
2015,06,21,08,00,12.20
2015,06,21,08,01,12.30
2015,06,21,08,02,12.30
2015,06,21,08,03,12.40
2015,06,21,08,04,12.40
2015,06,21,08,05,12.40
2015,06,21,08,06,12.40
2015,06,21,08,07,12.40
2015,06,21,08,08,12.40
2015,06,21,08,09,12.40
2015,06,21,08,10,12.30
2015,06,21,08,11,12.40
2015,06,21,08,12,12.40
2015,06,21,08,13,12.40
2015,06,21,08,14,12.40
2015,06,21,08,15,12.40
2015,06,21,08,16,12.40
2015,06,21,08,17,12.40
2015,06,21,08,18,12.40
2015,06,21,08,19,12.40
2015,06,21,08,20,12.40
2015,06,21,08,21,12.40
2015,06,21,08,22,12.40
2015,06,21,08,23,12.40
2015,06,21,08,24,12.50
2015,06,21,08,25,12.60
2015,06,21,08,26,12.60
2015,06,21,08,27,12.60
2015,06,21,08,28,12.70
2015,06,21,08,29,12.80
2015,06,21,08,30,12.80
2015,06,21,08,31,12.90
2015,06,21,08,32,12.90
2015,06,21,08,33,12.90
2015,06,21,08,34,12.90
2015,06,21,08,35,12.90
2015,06,21,08,36,12.90
2015,06,21,08,37,12.90
2015,06,21,08,38,12.90
2015,06,21,08,39,12.80
2015,06,21,08,40,12.80
2015,06,21,08,41,12.70
2015,06,21,08,42,12.80
2015,06,21,08,43,12.80
2015,06,21,08,44,12.80
2015,06,21,08,45,12.80
2015,06,21,08,46,12.80
2015,06,21,08,47,12.80
2015,06,21,08,48,12.80
2015,06,21,08,49,12.80
2015,06,21,08,50,12.80
2015,06,21,08,51,12.80
2015,06,21,08,52,12.90
2015,06,21,08,53,12.90
2015,06,21,08,54,13.00
2015,06,21,08,55,13.00
2015,06,21,08,56,13.10
2015,06,21,08,57,13.10
2015,06,21,08,58,13.10
2015,06,21,08,59,13.10
2015,06,21,09,00,13.10
2015,06,21,09,01,13.20
2015,06,21,09,02,13.20
2015,06,21,09,03,13.20
2015,06,21,09,04,13.20
2015,06,21,09,05,13.20
2015,06,21,09,06,13.20
2015,06,21,09,07,13.20
2015,06,21,09,08,13.20
2015,06,21,09,09,13.10
2015,06,21,09,10,13.10
2015,06,21,09,11,13.20
2015,06,21,09,12,13.20
2015,06,21,09,13,13.20
2015,06,21,09,14,13.20
2015,06,21,09,15,13.30
2015,06,21,09,16,13.30
2015,06,21,09,17,13.30
2015,06,21,09,18,13.30
2015,06,21,09,19,13.40
2015,06,21,09,20,13.40
2015,06,21,09,21,13.50
2015,06,21,09,22,13.50
2015,06,21,09,23,13.50
2015,06,21,09,24,13.60
2015,06,21,09,25,13.60
2015,06,21,09,26,13.70
2015,06,21,09,27,13.70
2015,06,21,09,28,13.80
2015,06,21,09,29,13.80
2015,06,21,09,30,13.80
2015,06,21,09,31,13.90
2015,06,21,09,32,13.90
2015,06,21,09,33,13.90
2015,06,21,09,34,14.00
2015,06,21,09,35,14.00
2015,06,21,09,36,14.00
2015,06,21,09,37,14.10
2015,06,21,09,38,14.20
2015,06,21,09,39,14.20
2015,06,21,09,40,14.30
2015,06,21,09,41,14.30
2015,06,21,09,42,14.30
2015,06,21,09,43,14.30
2015,06,21,09,44,14.30
2015,06,21,09,45,14.30
2015,06,21,09,46,14.20
2015,06,21,09,47,14.20
2015,06,21,09,48,14.20
2015,06,21,09,49,14.10
2015,06,21,09,50,14.10
2015,06,21,09,51,14.10
2015,06,21,09,52,14.10
2015,06,21,09,53,14.20
2015,06,21,09,54,14.20
2015,06,21,09,55,14.20
2015,06,21,09,56,14.30
2015,06,21,09,57,14.30
2015,06,21,09,58,14.30
2015,06,21,09,59,14.30
2015,06,21,10,00,14.30
2015,06,21,10,01,14.30
2015,06,21,10,02,14.30
2015,06,21,10,03,14.40
2015,06,21,10,04,14.40
2015,06,21,10,05,14.50
2015,06,21,10,06,14.60
2015,06,21,10,07,14.60
2015,06,21,10,08,14.60
2015,06,21,10,09,14.70
2015,06,21,10,10,14.70
2015,06,21,10,11,14.80
2015,06,21,10,12,14.90
2015,06,21,10,13,14.90
2015,06,21,10,14,14.90
2015,06,21,10,15,15.00
2015,06,21,10,16,14.90
2015,06,21,10,17,14.90
2015,06,21,10,18,14.90
2015,06,21,10,19,14.90
2015,06,21,10,20,15.00
2015,06,21,10,21,15.00
2015,06,21,10,22,15.00
2015,06,21,10,23,15.00
2015,06,21,10,24,14.90
2015,06,21,10,25,14.80
2015,06,21,10,26,14.90
2015,06,21,10,27,14.80
2015,06,21,10,28,14.80
2015,06,21,10,29,14.70
2015,06,21,10,30,14.70
2015,06,21,10,31,14.70
2015,06,21,10,32,14.70
2015,06,21,10,33,14.80
2015,06,21,10,34,14.80
2015,06,21,10,35,14.80
2015,06,21,10,36,14.90
2015,06,21,10,37,14.90
2015,06,21,10,38,15.00
2015,06,21,10,39,15.00
2015,06,21,10,40,15.00
2015,06,21,10,41,15.00
2015,06,21,10,42,15.10
2015,06,21,10,43,15.10
2015,06,21,10,44,15.20
2015,06,21,10,45,15.10
2015,06,21,10,46,15.10
2015,06,21,10,47,15.10
2015,06,21,10,48,15.10
2015,06,21,10,49,15.10
2015,06,21,10,50,15.10
2015,06,21,10,51,15.10
2015,06,21,10,52,15.10
2015,06,21,10,53,15.10
2015,06,21,10,54,15.20
2015,06,21,10,55,15.20
2015,06,21,10,56,15.30
2015,06,21,10,57,15.30
2015,06,21,10,58,15.30
2015,06,21,10,59,15.40
2015,06,21,11,00,15.40
2015,06,21,11,01,15.40
2015,06,21,11,02,15.30
2015,06,21,11,03,15.30
2015,06,21,11,04,15.20
2015,06,21,11,05,15.20
2015,06,21,11,06,15.30
2015,06,21,11,07,15.30
2015,06,21,11,08,15.40
2015,06,21,11,09,15.50
2015,06,21,11,10,15.60
2015,06,21,11,11,15.60
2015,06,21,11,12,15.60
2015,06,21,11,13,15.60
2015,06,21,11,14,15.70
2015,06,21,11,15,15.70
2015,06,21,11,16,15.80
2015,06,21,11,17,15.90
2015,06,21,11,18,15.90
2015,06,21,11,19,16.00
2015,06,21,11,20,16.00
2015,06,21,11,21,16.10
2015,06,21,11,22,16.10
2015,06,21,11,23,16.20
2015,06,21,11,24,16.20
2015,06,21,11,25,16.30
2015,06,21,11,26,16.20
2015,06,21,11,27,16.30
2015,06,21,11,28,16.30
2015,06,21,11,29,16.30
2015,06,21,11,30,16.30
2015,06,21,11,31,16.30
2015,06,21,11,32,16.30
2015,06,21,11,33,16.30
2015,06,21,11,34,16.30
2015,06,21,11,35,16.40
2015,06,21,11,36,16.40
2015,06,21,11,37,16.50
2015,06,21,11,38,16.50
2015,06,21,11,39,16.40
2015,06,21,11,40,16.40
2015,06,21,11,41,16.40
2015,06,21,11,42,16.30
2015,06,21,11,43,16.40
2015,06,21,11,44,16.40
2015,06,21,11,45,16.40
2015,06,21,11,46,16.40
2015,06,21,11,47,16.50
2015,06,21,11,48,16.50
2015,06,21,11,49,16.50
2015,06,21,11,50,16.60
2015,06,21,11,51,16.60
2015,06,21,11,52,16.70
2015,06,21,11,53,16.70
2015,06,21,11,54,16.70
2015,06,21,11,55,16.80
2015,06,21,11,56,16.90
2015,06,21,11,57,17.00
2015,06,21,11,58,17.10
2015,06,21,11,59,17.20
2015,06,21,12,00,17.30
2015,06,21,12,01,17.30
2015,06,21,12,02,17.30
2015,06,21,12,03,17.30
2015,06,21,12,04,17.30
2015,06,21,12,05,17.30
2015,06,21,12,06,17.30
2015,06,21,12,07,17.30
2015,06,21,12,08,17.30
2015,06,21,12,09,17.30
2015,06,21,12,10,17.30
2015,06,21,12,11,17.20
2015,06,21,12,12,17.30
2015,06,21,12,13,17.30
2015,06,21,12,14,17.30
2015,06,21,12,15,17.30
2015,06,21,12,16,17.30
2015,06,21,12,17,17.30
2015,06,21,12,18,17.30
2015,06,21,12,19,17.30
2015,06,21,12,20,17.30
2015,06,21,12,21,17.30
2015,06,21,12,22,17.20
2015,06,21,12,23,17.10
2015,06,21,12,24,17.00
2015,06,21,12,25,16.90
2015,06,21,12,26,16.90
2015,06,21,12,27,16.90
2015,06,21,12,28,16.90
2015,06,21,12,29,17.00
2015,06,21,12,30,17.10
2015,06,21,12,31,17.20
2015,06,21,12,32,17.30
2015,06,21,12,33,17.40
2015,06,21,12,34,17.40
2015,06,21,12,35,17.40
2015,06,21,12,36,17.50
2015,06,21,12,37,17.50
2015,06,21,12,38,17.60
2015,06,21,12,39,17.70
2015,06,21,12,40,17.80
2015,06,21,12,41,17.90
2015,06,21,12,42,18.00
2015,06,21,12,43,18.00
2015,06,21,12,44,18.10
2015,06,21,12,45,18.20
2015,06,21,12,46,18.30
2015,06,21,12,47,18.40
2015,06,21,12,48,18.40
2015,06,21,12,49,18.40
2015,06,21,12,50,18.40
2015,06,21,12,51,18.30
2015,06,21,12,52,18.30
2015,06,21,12,53,18.20
2015,06,21,12,54,18.20
2015,06,21,12,55,18.10
2015,06,21,12,56,18.20
2015,06,21,12,57,18.20
2015,06,21,12,58,18.10
2015,06,21,12,59,18.10
2015,06,21,13,00,18.10
2015,06,21,13,01,18.00
2015,06,21,13,02,18.00
2015,06,21,13,03,17.90
2015,06,21,13,04,18.00
2015,06,21,13,05,18.00
2015,06,21,13,06,18.10
2015,06,21,13,07,18.30
2015,06,21,13,08,18.40
2015,06,21,13,09,18.50
2015,06,21,13,10,18.60
2015,06,21,13,11,18.60
2015,06,21,13,12,18.70
2015,06,21,13,13,18.80
2015,06,21,13,14,18.90
2015,06,21,13,15,18.90
2015,06,21,13,16,18.90
2015,06,21,13,17,18.80
2015,06,21,13,18,18.80
2015,06,21,13,19,18.80
2015,06,21,13,20,18.80
2015,06,21,13,21,18.90
2015,06,21,13,22,18.90
2015,06,21,13,23,19.00
2015,06,21,13,24,19.10
2015,06,21,13,25,19.10
2015,06,21,13,26,19.10
2015,06,21,13,27,19.10
2015,06,21,13,28,19.10
2015,06,21,13,29,19.10
2015,06,21,13,30,19.20
2015,06,21,13,31,19.20
2015,06,21,13,32,19.20
2015,06,21,13,33,19.20
2015,06,21,13,34,19.20
2015,06,21,13,35,19.20
2015,06,21,13,36,19.20
2015,06,21,13,37,19.10
2015,06,21,13,38,19.10
2015,06,21,13,39,19.00
2015,06,21,13,40,18.90
2015,06,21,13,41,18.90
2015,06,21,13,42,18.90
2015,06,21,13,43,18.90
2015,06,21,13,44,19.00
2015,06,21,13,45,19.00
2015,06,21,13,46,19.10
2015,06,21,13,47,19.20
2015,06,21,13,48,19.30
2015,06,21,13,49,19.30
2015,06,21,13,50,19.40
2015,06,21,13,51,19.50
2015,06,21,13,52,19.60
2015,06,21,13,53,19.70
2015,06,21,13,54,19.70
2015,06,21,13,55,19.80
2015,06,21,13,56,19.80
2015,06,21,13,57,19.80
2015,06,21,13,58,19.70
2015,06,21,13,59,19.60
2015,06,21,14,00,19.50
2015,06,21,14,01,19.50
2015,06,21,14,02,19.40
2015,06,21,14,03,19.40
2015,06,21,14,04,19.50
2015,06,21,14,05,19.50
2015,06,21,14,06,19.50
2015,06,21,14,07,19.60
2015,06,21,14,08,19.70
2015,06,21,14,09,19.80
2015,06,21,14,10,19.80
2015,06,21,14,11,19.80
2015,06,21,14,12,19.80
2015,06,21,14,13,19.80
2015,06,21,14,14,19.80
2015,06,21,14,15,19.80
2015,06,21,14,16,20.00
2015,06,21,14,17,20.10
2015,06,21,14,18,20.20
2015,06,21,14,19,20.40
2015,06,21,14,20,20.50
2015,06,21,14,21,20.70
2015,06,21,14,22,20.90
2015,06,21,14,23,21.10
2015,06,21,14,24,21.20
2015,06,21,14,25,21.30
2015,06,21,14,26,21.40
2015,06,21,14,27,21.60
2015,06,21,14,28,21.70
2015,06,21,14,29,21.80
2015,06,21,14,30,21.90
2015,06,21,14,31,21.90
2015,06,21,14,32,22.00
2015,06,21,14,33,22.00
2015,06,21,14,34,22.00
2015,06,21,14,35,22.00
2015,06,21,14,36,22.00
2015,06,21,14,37,22.00
2015,06,21,14,38,22.10
2015,06,21,14,39,22.10
2015,06,21,14,40,22.20
2015,06,21,14,41,22.20
2015,06,21,14,42,22.20
2015,06,21,14,43,22.20
2015,06,21,14,44,22.20
2015,06,21,14,45,22.10
2015,06,21,14,46,22.10
2015,06,21,14,47,22.20
2015,06,21,14,48,22.20
2015,06,21,14,49,22.30
2015,06,21,14,50,22.30
2015,06,21,14,51,22.40
2015,06,21,14,52,22.50
2015,06,21,14,53,22.50
2015,06,21,14,54,22.60
2015,06,21,14,55,22.70
2015,06,21,14,56,22.80
2015,06,21,14,57,22.90
2015,06,21,14,58,23.00
2015,06,21,14,59,23.00
2015,06,21,15,00,23.10
2015,06,21,15,01,23.00
2015,06,21,15,02,23.00
2015,06,21,15,03,22.90
2015,06,21,15,04,22.90
2015,06,21,15,05,22.90
2015,06,21,15,06,23.00
2015,06,21,15,07,23.00
2015,06,21,15,08,23.00
2015,06,21,15,09,23.10
2015,06,21,15,10,23.10
2015,06,21,15,11,23.10
2015,06,21,15,12,23.10
2015,06,21,15,13,23.10
2015,06,21,15,14,23.20
2015,06,21,15,15,23.20
2015,06,21,15,16,23.20
2015,06,21,15,17,23.20
2015,06,21,15,18,23.30
2015,06,21,15,19,23.30
2015,06,21,15,20,23.30
2015,06,21,15,21,23.30
2015,06,21,15,22,23.20
2015,06,21,15,23,23.10
2015,06,21,15,24,23.10
2015,06,21,15,25,23.00
2015,06,21,15,26,22.90
2015,06,21,15,27,22.90
2015,06,21,15,28,22.80
2015,06,21,15,29,22.80
2015,06,21,15,30,22.70
2015,06,21,15,31,22.70
2015,06,21,15,32,22.70
2015,06,21,15,33,22.70
2015,06,21,15,34,22.80
2015,06,21,15,35,22.90
2015,06,21,15,36,23.00
2015,06,21,15,37,23.10
2015,06,21,15,38,23.20
2015,06,21,15,39,23.20
2015,06,21,15,40,23.20
2015,06,21,15,41,23.20
2015,06,21,15,42,23.20
2015,06,21,15,43,23.20
2015,06,21,15,44,23.20
2015,06,21,15,45,23.20
2015,06,21,15,46,23.20
2015,06,21,15,47,23.20
2015,06,21,15,48,23.10
2015,06,21,15,49,22.90
2015,06,21,15,50,22.80
2015,06,21,15,51,22.60
2015,06,21,15,52,22.40
2015,06,21,15,53,22.30
2015,06,21,15,54,22.10
2015,06,21,15,55,22.00
2015,06,21,15,56,22.00
2015,06,21,15,57,21.90
2015,06,21,15,58,21.90
2015,06,21,15,59,21.90
2015,06,21,16,00,21.90
2015,06,21,16,01,21.80
2015,06,21,16,02,21.80
2015,06,21,16,03,21.70
2015,06,21,16,04,21.60
2015,06,21,16,05,21.40
2015,06,21,16,06,21.20
2015,06,21,16,07,21.00
2015,06,21,16,08,20.90
2015,06,21,16,09,20.80
2015,06,21,16,10,20.80
2015,06,21,16,11,20.70
2015,06,21,16,12,20.70
2015,06,21,16,13,20.60
2015,06,21,16,14,20.50
2015,06,21,16,15,20.40
2015,06,21,16,16,20.30
2015,06,21,16,17,20.20
2015,06,21,16,18,20.10
2015,06,21,16,19,20.00
2015,06,21,16,20,19.80
2015,06,21,16,21,19.70
2015,06,21,16,22,19.60
2015,06,21,16,23,19.50
2015,06,21,16,24,19.50
2015,06,21,16,25,19.50
2015,06,21,16,26,19.50
2015,06,21,16,27,19.50
2015,06,21,16,28,19.60
2015,06,21,16,29,19.60
2015,06,21,16,30,19.70
2015,06,21,16,31,19.80
2015,06,21,16,32,19.90
2015,06,21,16,33,20.10
2015,06,21,16,34,20.20
2015,06,21,16,35,20.30
2015,06,21,16,36,20.40
2015,06,21,16,37,20.50
2015,06,21,16,38,20.70
2015,06,21,16,39,20.80
2015,06,21,16,40,21.00
2015,06,21,16,41,21.10
2015,06,21,16,42,21.20
2015,06,21,16,43,21.10
2015,06,21,16,44,21.10
2015,06,21,16,45,21.00
2015,06,21,16,46,20.90
2015,06,21,16,47,20.90
2015,06,21,16,48,20.80
2015,06,21,16,49,20.80
2015,06,21,16,50,20.80
2015,06,21,16,51,20.70
2015,06,21,16,52,20.60
2015,06,21,16,53,20.50
2015,06,21,16,54,20.50
2015,06,21,16,55,20.50
2015,06,21,16,56,20.50
2015,06,21,16,57,20.50
2015,06,21,16,58,20.40
2015,06,21,16,59,20.30
2015,06,21,17,00,20.30
2015,06,21,17,01,20.20
2015,06,21,17,02,20.20
2015,06,21,17,03,20.10
2015,06,21,17,04,20.10
2015,06,21,17,05,20.00
2015,06,21,17,06,20.00
2015,06,21,17,07,19.90
2015,06,21,17,08,19.90
2015,06,21,17,09,19.80
2015,06,21,17,10,19.80
2015,06,21,17,11,19.70
2015,06,21,17,12,19.70
2015,06,21,17,13,19.70
2015,06,21,17,14,19.70
2015,06,21,17,15,19.60
2015,06,21,17,16,19.60
2015,06,21,17,17,19.50
2015,06,21,17,18,19.50
2015,06,21,17,19,19.50
2015,06,21,17,20,19.50
2015,06,21,17,21,19.50
2015,06,21,17,22,19.50
2015,06,21,17,23,19.50
2015,06,21,17,24,19.40
2015,06,21,17,25,19.40
2015,06,21,17,26,19.40
2015,06,21,17,27,19.30
2015,06,21,17,28,19.20
2015,06,21,17,29,19.20
2015,06,21,17,30,19.10
2015,06,21,17,31,19.00
2015,06,21,17,32,18.90
2015,06,21,17,33,18.90
2015,06,21,17,34,18.80
2015,06,21,17,35,18.70
2015,06,21,17,36,18.70
2015,06,21,17,37,18.60
2015,06,21,17,38,18.60
2015,06,21,17,39,18.50
2015,06,21,17,40,18.50
2015,06,21,17,41,18.40
2015,06,21,17,42,18.40
2015,06,21,17,43,18.40
2015,06,21,17,44,18.30
2015,06,21,17,45,18.30
2015,06,21,17,46,18.40
2015,06,21,17,47,18.40
2015,06,21,17,48,18.40
2015,06,21,17,49,18.40
2015,06,21,17,50,18.40
2015,06,21,17,51,18.40
2015,06,21,17,52,18.40
2015,06,21,17,53,18.30
2015,06,21,17,54,18.20
2015,06,21,17,55,18.20
2015,06,21,17,56,18.20
2015,06,21,17,57,18.20
2015,06,21,17,58,18.10
2015,06,21,17,59,18.10
2015,06,21,18,00,18.00
2015,06,21,18,01,18.00
2015,06,21,18,02,17.90
2015,06,21,18,03,18.00
2015,06,21,18,04,18.00
2015,06,21,18,05,18.00
2015,06,21,18,06,18.00
2015,06,21,18,07,18.00
2015,06,21,18,08,18.00
2015,06,21,18,09,18.10
2015,06,21,18,10,18.10
2015,06,21,18,11,18.20
2015,06,21,18,12,18.30
2015,06,21,18,13,18.30
2015,06,21,18,14,18.30
2015,06,21,18,15,18.40
2015,06,21,18,16,18.40
2015,06,21,18,17,18.50
2015,06,21,18,18,18.60
2015,06,21,18,19,18.60
2015,06,21,18,20,18.60
2015,06,21,18,21,18.60
2015,06,21,18,22,18.70
2015,06,21,18,23,18.70
2015,06,21,18,24,18.70
2015,06,21,18,25,18.80
2015,06,21,18,26,18.80
2015,06,21,18,27,18.80
2015,06,21,18,28,18.80